[[{"header":{"parameterUnit":"m.s-1","parameterCategory":1,"la1":30.2992,"la2":30.254,"lo1":-89.0895,"lo2":-89.0443,"dy":0.0025,"dx":0.0025,"nx":19,"ny":19,"refTime":"2026-04-17T03:00:00:Z","depth":0,"parameterNumber":2,"parameterNumberName":"U-component_of_WINDS"},"data":[0,0,0,-0.1419,-0.1417,-0.1283,-0.1283,-0.1132,-0.1131,0,0,0,0,0,0,0,0,0,0,0,-0.1472,-0.1472,-0.142,-0.1417,-0.1283,-0.1283,-0.1132,-0.1131,0,0,0,0,0,0,0,0,0,0,0,-0.1472,-0.1472,-0.1471,-0.1416,-0.1284,-0.1283,-0.1132,-0.1226,0,0,0,0,0,0,0,0,0,0,-0.1352,-0.1414,-0.1472,-0.1471,-0.1416,-0.1284,-0.1283,-0.123,-0.122,-0.1201,0,-0.1189,0,-0.1158,-0.1122,-0.1122,0,0,0,-0.1407,-0.1422,-0.1374,-0.1471,-0.1414,-0.1284,-0.1341,-0.1224,-0.1213,-0.1188,-0.1187,-0.1181,-0.1155,-0.1121,-0.1121,-0.1049,-0.1049,0,0,-0.1414,-0.1455,-0.1382,-0.1368,-0.1391,-0.1345,-0.1337,-0.1217,-0.1218,-0.1186,-0.1177,-0.1153,-0.112,-0.1119,-0.1048,-0.1049,0,0,0,-0.1442,-0.1461,-0.1415,-0.1374,-0.1349,-0.1341,-0.1332,-0.1223,-0.1205,-0.1175,-0.1151,-0.112,-0.1118,-0.1048,-0.1049,-0.1096,0,0,0,-0.1446,-0.1477,-0.1419,-0.1443,-0.1352,-0.1285,-0.1341,-0.1213,-0.1198,-0.1152,-0.112,-0.1117,-0.1048,-0.1048,-0.1094,-0.1111,0,0,0,-0.1476,-0.148,-0.1465,-0.1445,-0.1389,-0.1285,-0.126,-0.1209,-0.1184,-0.1122,-0.1116,-0.1048,-0.1048,-0.1092,-0.1108,-0.1104,0,0,0,-0.152,-0.1509,-0.1467,-0.1444,-0.1391,-0.1316,-0.126,-0.1202,-0.1154,-0.1119,-0.1048,-0.1049,-0.1092,-0.1107,-0.1103,-0.1109,-0.1115,0,0,-0.1529,-0.1511,-0.1495,-0.1453,-0.1397,-0.1333,-0.1282,-0.1199,-0.1155,-0.1086,-0.1084,-0.1094,-0.1108,-0.1104,-0.1134,-0.114,0,0,0,-0.1511,-0.15,-0.1476,-0.1433,-0.1369,-0.1316,-0.1236,-0.1205,-0.1145,-0.1128,-0.109,-0.1097,-0.1093,-0.1094,-0.1098,-0.1092,-0.1051,-0.1051,-0.1051,-0.1582,-0.1527,-0.1496,-0.1425,-0.1383,-0.1301,-0.1261,-0.1205,-0.1161,-0.1153,-0.1133,-0.1158,-0.1161,-0.1164,-0.1158,-0.1131,-0.1131,-0.1131,-0.1131,-0.1589,-0.1565,-0.1507,-0.1456,-0.1397,-0.1354,-0.1274,-0.1244,-0.1194,-0.1169,-0.1162,-0.114,-0.1171,-0.1163,-0.1134,-0.1134,-0.1133,-0.1133,-0.1133,-0.163,-0.1609,-0.1571,-0.1502,-0.1455,-0.1383,-0.1338,-0.1286,-0.1236,-0.123,-0.1202,-0.1201,-0.1194,-0.122,-0.122,-0.122,-0.122,-0.122,-0.122,-0.1688,-0.1644,-0.1613,-0.1544,-0.1509,-0.1456,-0.1373,-0.1336,-0.1283,-0.1248,-0.1248,-0.1205,-0.1184,-0.1181,-0.1222,-0.1221,-0.1221,-0.1221,-0.1221,-0.1717,-0.1701,-0.1654,-0.1619,-0.1533,-0.149,-0.1424,-0.1354,-0.1316,-0.1296,-0.1253,-0.1247,-0.1225,-0.1221,-0.1218,-0.1265,-0.1265,-0.1265,-0.1265,-0.1752,-0.1735,-0.1675,-0.1622,-0.1564,-0.1499,-0.1446,-0.1381,-0.1311,-0.1284,-0.1269,-0.1259,-0.1258,-0.1237,-0.1233,-0.1229,-0.1278,-0.1278,-0.1278,-0.1766,-0.1742,-0.1708,-0.164,-0.1569,-0.1509,-0.1457,-0.1398,-0.1315,-0.1277,-0.1261,-0.1261,-0.1245,-0.1243,-0.1206,-0.1201,-0.1192,0,0]},{"header":{"parameterUnit":"m.s-1","parameterCategory":1,"la1":30.2992,"la2":30.254,"lo1":-89.0895,"lo2":-89.0443,"dy":0.0025,"dx":0.0025,"nx":19,"ny":19,"refTime":"2026-04-17T03:00:00:Z","depth":0,"parameterNumber":3,"parameterNumberName":"V-component_of_WINDS"},"data":[0,0,0,4.5494,4.5496,4.5554,4.5555,4.5639,4.5639,0,0,0,0,0,0,0,0,0,0,0,4.5485,4.5485,4.5494,4.5496,4.5554,4.5555,4.5638,4.5639,0,0,0,0,0,0,0,0,0,0,0,4.5484,4.5485,4.5486,4.5496,4.5554,4.5555,4.5638,4.559,0,0,0,0,0,0,0,0,0,0,4.5532,4.553,4.5485,4.5486,4.5497,4.5554,4.5555,4.5588,4.5593,4.5617,0,4.5641,0,4.5642,4.5646,4.5646,0,0,0,4.549,4.5526,4.5535,4.5487,4.5497,4.5554,4.5526,4.5591,4.5597,4.5624,4.5642,4.5645,4.5644,4.5646,4.5647,4.581,4.5811,0,0,4.5486,4.5498,4.5531,4.554,4.5534,4.5524,4.5528,4.5594,4.5614,4.5643,4.5647,4.5645,4.5647,4.5648,4.5809,4.581,0,0,0,4.5481,4.5496,4.5504,4.5537,4.5547,4.5526,4.5531,4.5611,4.5613,4.5648,4.5646,4.5648,4.5649,4.5808,4.5809,4.5875,0,0,0,4.5479,4.5494,4.5503,4.5511,4.5546,4.558,4.5546,4.5608,4.5615,4.5645,4.5648,4.565,4.5806,4.5809,4.5871,4.5904,0,0,0,4.5478,4.5493,4.5505,4.5511,4.5537,4.5579,4.5584,4.5609,4.5615,4.5646,4.565,4.5806,4.5808,4.5867,4.5898,4.5952,0,0,0,4.548,4.556,4.5506,4.5595,4.5537,4.562,4.5583,4.5644,4.5679,4.5648,4.5807,4.5809,4.5866,4.5894,4.5948,4.6001,4.6024,0,0,4.5588,4.5573,4.5625,4.5578,4.5675,4.561,4.5715,4.5734,4.5724,4.5781,4.5785,4.5873,4.5897,4.5951,4.6147,4.6166,0,0,0,4.5663,4.5701,4.5723,4.5759,4.5778,4.5796,4.5799,4.5806,4.5855,4.5757,4.5906,4.592,4.5951,4.5976,4.5992,4.6018,4.5821,4.5821,4.582,4.5832,4.5819,4.5904,4.5898,4.5933,4.5936,4.5963,4.5973,4.5945,4.5981,4.5998,4.6119,4.6149,4.616,4.6188,4.6024,4.6025,4.6025,4.6025,4.599,4.6041,4.6008,4.6078,4.6063,4.612,4.6127,4.6107,4.6158,4.6105,4.6131,4.6076,4.6181,4.6205,4.603,4.6029,4.6028,4.6028,4.6028,4.61,4.6123,4.6132,4.6185,4.6226,4.6216,4.6268,4.6251,4.6235,4.6261,4.6278,4.6277,4.6275,4.6271,4.6271,4.6272,4.6272,4.6272,4.6272,4.6211,4.622,4.6267,4.6296,4.6318,4.6345,4.635,4.637,4.6388,4.6372,4.6372,4.6343,4.6194,4.6158,4.6279,4.6278,4.6277,4.6276,4.6276,4.6377,4.6337,4.6411,4.6433,4.6467,4.651,4.6488,4.6532,4.6546,4.6573,4.6538,4.6431,4.6414,4.6402,4.6371,4.654,4.654,4.654,4.654,4.647,4.6461,4.6534,4.6572,4.6606,4.6595,4.6678,4.6683,4.6682,4.669,4.6662,4.6621,4.6609,4.6599,4.6582,4.6554,4.6766,4.6766,4.6766,4.6573,4.6567,4.6641,4.6643,4.6668,4.669,4.6768,4.6811,4.68,4.6775,4.6696,4.6686,4.6619,4.6597,4.657,4.6544,4.6492,0,0]}]]